Address 0xbf7454c656BDB7C439E8d759c18Ac240398FdE35

 

Overview

Balance:
0.033674363853971222 ETH

ETH Value:
$44.53 (@ $1,322.37/ETH)
Txn Hash Method
Block
From
To
Value [Txn Fee]
0x58eb5de667461f42cc0d2ae24d8a685ffa0f7d64f2acb171c77716522fe552f7Change Receivers44636482022-01-07 20:35:19262 days 22 hrs ago0xbf7454c656bdb7c439e8d759c18ac240398fde35OUT 0x1d7c7cb66fb2d75123351fd0d6779e8d7724a1ae0 ETH0.000889831033 ETH
0x30ecf08d12808c77218084f9a7d3117ba7b1db944378608f57215675253e4bb9Transfer7645822021-09-14 0:11:46378 days 18 hrs ago0xbf7454c656bdb7c439e8d759c18ac240398fde35OUT0x08eec580ad41e9994599bad7d2a74a9874a2852c0.041503938211062 ETH0.000485260443 ETH
0x5848c0af5e476e9cf5b9d71773292dae693b6c1a8142b3a0b1fef32c811f416fTransfer7645552021-09-14 0:10:22378 days 18 hrs ago0xbf7454c656bdb7c439e8d759c18ac240398fde35OUT0x08eec580ad41e9994599bad7d2a74a9874a2852c0 ETH0.000475384968 ETH
0xfc47ef86ae2c8816a73ffd1cb46c5d98b9872b9ce2da73247c5478e5bacb6a48Recover3398382021-09-09 21:01:32382 days 21 hrs ago0xbf7454c656bdb7c439e8d759c18ac240398fde35OUT 0x9f935a06245f32f5a3050f6a678d0f8c7bcd25d90 ETH0.000887305629 ETH
0x9861965551ea66ca797730e2f7985b62b543cfd6e71d91e043c050c50e7eaadeTransfer3397712021-09-09 20:52:50382 days 21 hrs ago0x08eec580ad41e9994599bad7d2a74a9874a2852c IN 0xbf7454c656bdb7c439e8d759c18ac240398fde350.02 ETH0.000876469443 ETH
0x25c9a0a0e697ab436aba454f428d0605025a7d27a8aef19f78e6dbdc07e98973Transfer3397602021-09-09 20:50:49382 days 22 hrs ago0xc4b60a931929d3ed0ac423f9ea80e5962726da73 IN 0xbf7454c656bdb7c439e8d759c18ac240398fde350.022805173976024 ETH0.000896546052 ETH
0x49059251ff4bd0c1b84726c35e6760169302810d544ffce72f330b31c7dd605cTransfer3376492021-09-09 18:12:21383 days 40 mins ago0xbf7454c656bdb7c439e8d759c18ac240398fde35OUT0xc4b60a931929d3ed0ac423f9ea80e5962726da730.595822427977652 ETH0.000906918259 ETH
0xe204c33c0ec94c0d4c0ad0754ac375091850196e03dba2741ac8f57882ad8240Transfer2869802021-09-05 17:33:36387 days 1 hr ago0xbf7454c656bdb7c439e8d759c18ac240398fde35OUT0xde903e2712288a1da82942dddf2c20529565ac300 ETH0.000816255033 ETH
0x133bb2d65c1f57baba6e79f99094f63eac3504a43b7545bfacbb98c183b1fe210x608060402868472021-09-05 17:22:26387 days 1 hr ago0xbf7454c656bdb7c439e8d759c18ac240398fde35OUT Create: SWPRConverter0 ETH0.018012942482 ETH
0x7795c569d4d99faafa0ccc616e2e73685f2088173b5ae965a31fc731fd1d5862Recover2868262021-09-05 17:19:39387 days 1 hr ago0xbf7454c656bdb7c439e8d759c18ac240398fde35OUT 0x9f935a06245f32f5a3050f6a678d0f8c7bcd25d90 ETH0.000740914744 ETH
0xca4b32095dae292086ebe28d26205678e56a5bef8445325316e22526a44770d7Transfer2773402021-09-04 22:05:44387 days 20 hrs ago0xbf7454c656bdb7c439e8d759c18ac240398fde35OUT0xde903e2712288a1da82942dddf2c20529565ac300 ETH0.000867157381 ETH
0xe0538e73c654b812748b7c164141dc5764112196c245053f8e4f823f63e1871aRecover2773252021-09-04 22:03:28387 days 20 hrs ago0xbf7454c656bdb7c439e8d759c18ac240398fde35OUT 0x9f935a06245f32f5a3050f6a678d0f8c7bcd25d90 ETH0.000788777333 ETH
0xf11e8fcc9c3f4eba32efb25a843c9e87412ef8c2e2161bb7ca1d46561653f4e5Transfer2773202021-09-04 22:02:53387 days 20 hrs ago0xbf7454c656bdb7c439e8d759c18ac240398fde35OUT0xde903e2712288a1da82942dddf2c20529565ac300 ETH0.00109697294 ETH
0xe5e26634bfe0f832563309f579a6e1b56e93a8a26c7bce846238ddb904aed93aRecover2772992021-09-04 22:01:44387 days 20 hrs ago0xbf7454c656bdb7c439e8d759c18ac240398fde35OUT 0x9f935a06245f32f5a3050f6a678d0f8c7bcd25d90 ETH0.000788777333 ETH
0x860ad9d145771ca6850ff07d623e2a42cb52022ef467a9320f7f637bd0d27bb40x608060402772792021-09-04 21:58:20387 days 20 hrs ago0xbf7454c656bdb7c439e8d759c18ac240398fde35OUT Create: SWPRConverter0 ETH0.018803898296 ETH
0x1e29cd2d02255d5b20dc29e609c499a0602a0f04d05d14708b67aa6af990fb700x608060402772222021-09-04 21:51:26387 days 21 hrs ago0xbf7454c656bdb7c439e8d759c18ac240398fde35OUT Create: DXdaoERC20StakingRewardsDistributionFactory0 ETH0.010646426949 ETH
0xc29db43dfe9c85c8d8244b3a1909aaf3ff17e05d2b2c87a98ea6506e5baf8fed0x608060402772212021-09-04 21:51:26387 days 21 hrs ago0xbf7454c656bdb7c439e8d759c18ac240398fde35OUT Contract Creation0 ETH0.026103067263 ETH
0x09771774fc138775472910f6bb0f2e03ff74e1e32a658e9c3e4d8f59f6431ba80x60c060402771962021-09-04 21:47:55387 days 21 hrs ago0xbf7454c656bdb7c439e8d759c18ac240398fde35OUT Create: DXswapRouter0 ETH0.177515197718 ETH
0xe12a3cfc93c241fd20c3c56dbcc7904ef3b944ff40d1de62d96d8a50b7b654cdSet Fee To Sette...2771932021-09-04 21:47:55387 days 21 hrs ago0xbf7454c656bdb7c439e8d759c18ac240398fde35OUT 0x359f20ad0f42d75a5077e65f30274cabe6f4f01a0 ETH0.000835710944 ETH
0x081f06ae80f2b7624f3bbc9febb654e7fba71e4f64c35665c4993533fbfb22b2Set Fee To2771922021-09-04 21:47:55387 days 21 hrs ago0xbf7454c656bdb7c439e8d759c18ac240398fde35OUT 0x359f20ad0f42d75a5077e65f30274cabe6f4f01a0 ETH0.001077199536 ETH
0x19274b070c1ec2c08538f08682d5e04ccccc1d61358c01dae5c81c09862cc2e10x608060402771892021-09-04 21:47:55387 days 21 hrs ago0xbf7454c656bdb7c439e8d759c18ac240398fde35OUT Create: DXswapFeeSetter0 ETH0.005016446208 ETH
0x47754e2d43a563082d1c2b7f68ecc9542cd0a00fe494ba7d4d497f1017d64f6e0x608060402771882021-09-04 21:47:55387 days 21 hrs ago0xbf7454c656bdb7c439e8d759c18ac240398fde35OUT Create: DXswapFeeReceiver0 ETH0.012022888624 ETH
0xc01c1e64371f21b8eb1e6a789c5e08a08972a8b6c4c3993a5aac4229e521b61b0x608060402771862021-09-04 21:47:55387 days 21 hrs ago0xbf7454c656bdb7c439e8d759c18ac240398fde35OUT Create: DXswapFactory0 ETH0.027966891359 ETH
0xe81ad136e647494e2c081ca15574a0b200e85c9cefb10243747c461456e5d136Transfer2770422021-09-04 21:20:14387 days 21 hrs ago0x08eec580ad41e9994599bad7d2a74a9874a2852c IN 0xbf7454c656bdb7c439e8d759c18ac240398fde350.9 ETH0.000784411069 ETH
0x72ea8a4d5c2c65f280b1ddeeec82add604bb113e126259472801ae59c01fa583Transfer2770342021-09-04 21:17:39387 days 21 hrs ago0x08eec580ad41e9994599bad7d2a74a9874a2852c IN 0xbf7454c656bdb7c439e8d759c18ac240398fde350.001 ETH0.000784411069 ETH
[ Download CSV Export 
Latest 5 internal transactions
Parent Txn Hash Block From To Value
0x1fd413408b96b89582996e5e979b10a1fe14eaac449a1b1b2ab86bc497c8196944487962022-01-07 9:53:31263 days 8 hrs ago 0x1d7c7cb66fb2d75123351fd0d6779e8d7724a1ae0xbf7454c656bdb7c439e8d759c18ac240398fde350.016999959139419705 ETH
0x1fd413408b96b89582996e5e979b10a1fe14eaac449a1b1b2ab86bc497c8196944487962022-01-07 9:53:31263 days 8 hrs ago 0x1d7c7cb66fb2d75123351fd0d6779e8d7724a1ae0xbf7454c656bdb7c439e8d759c18ac240398fde350.016939821412384433 ETH
0xe204c33c0ec94c0d4c0ad0754ac375091850196e03dba2741ac8f57882ad82402869802021-09-05 17:33:36387 days 1 hr ago 0xbf7454c656bdb7c439e8d759c18ac240398fde35 0xb4d1650bb950a7551a1500903181b77118d818260 ETH
0xca4b32095dae292086ebe28d26205678e56a5bef8445325316e22526a44770d72773402021-09-04 22:05:44387 days 20 hrs ago 0xbf7454c656bdb7c439e8d759c18ac240398fde35 0xb4d1650bb950a7551a1500903181b77118d818260 ETH
0xf11e8fcc9c3f4eba32efb25a843c9e87412ef8c2e2161bb7ca1d46561653f4e52773202021-09-04 22:02:53387 days 20 hrs ago 0xbf7454c656bdb7c439e8d759c18ac240398fde35 0xb4d1650bb950a7551a1500903181b77118d818260 ETH
[ Download CSV Export 
Loading

Contract Name:
0 ETH

Compiler Version
0

Optimization Enabled:
0 ETH

Other Settings:
-NA-
Block Transaction Gas Used Reward
Age Block Fee Address BC Fee Address Voting Power Jailed Incoming
Block Uncle Number Difficulty Gas Used Reward
Loading
Make sure to use the "Vote Down" button for any spammy posts, and the "Vote Up" for interesting conversations.